{"data":{"norad_id":64275,"epoch":"2026-09-20T09:07:18.862752Z","epoch_age_seconds":148060,"freshness":"FRESH","line1":"1 64275U 25120V   26263.38007943  .00020973  00000+0  63005-3 0  9994","line2":"2 64275  53.1585 290.2776 0001429  86.9275 273.1891 15.34404036 73695","mean_motion":15.34404036,"eccentricity":0.0001429,"inclination_deg":53.1585,"raan_deg":290.2776,"arg_perigee_deg":86.9275,"mean_anomaly_deg":273.1891,"bstar":0.00063005,"rev_number":7369,"period_min":93.847511230086,"perigee_km":461.71369003473,"apogee_km":463.66879874697,"semimajor_km":6840.8282443909,"source":"CELESTRAK","updated_at":"2026-09-21T09:00:35.285660Z"}}